Lawrenceville, IL

2:46 AM CDT on September 23, 2017 (GMT -0500)
Lawrenceville-Vincennes International

Weather History for KLWV - February, 2014

Change the Weather History Date:

Sunday, February 2, 2014

  Actual Average Record
Temperature  
Mean Temperature 29 °F 32 °F  
Max Temperature 34 °F 41 °F 66 °F (2016)
Min Temperature 24 °F 24 °F 7 °F (2001)
Degree Days  
Heating Degree Days 36 33  
Month to date heating degree days 59 66  
Since 1 July heating degree days 3365 2917  
Cooling Degree Days 0 0  
Month to date cooling degree days 0 0  
Year to date cooling degree days 0 0  
Moisture  
Dew Point 25 °F    
Average Humidity 80    
Maximum Humidity 92    
Minimum Humidity 68    
Precipitation  
Precipitation 0.13 in 0.07 in 1.52 in (1986)
Month to date precipitation 0.52 0.14  
Year to date precipitation 2.11 2.52  
Sea Level Pressure  
Sea Level Pressure 30.16 in    
Wind  
Wind Speed 14 mph (North)    
Max Wind Speed 20 mph    
Max Gust Speed 25 mph    
Visibility 4 miles    
Events Rain , Snow    
T = Trace of Precipitation, MM = Missing Value Source: NWS Daily Summary

Daily Weather History Graph

Daily Weather History Graph

Search for Another Location

Airport or City:

Trip Planner

Search our weather history database for the weather conditions in past years. The results will help you decide how hot, cold, wet, or windy it might be!

Date:

Astronomy

Feb. 02, 2014 Rise Set
Actual Time 6:55 AM CST 5:13 PM CST
Civil Twilight 6:27 AM CST 5:41 PM CST
Nautical Twilight 5:55 AM CST 6:13 PM CST
Astronomical Twilight 5:24 AM CST 6:44 PM CST
Moon 8:24 AM CST (2/2) 8:54 PM CST (2/2)
Length of Visible Light 11h 13m
Length of Day
10h 17m
Waxing Crescent, 11% of the Moon is Illuminated
Feb 2
Waxing Crescent
Feb 6
First Quarter
Feb 14
Full
Feb 22
Last Quarter
Mar 1
New

Hourly Weather History & Observations

Time (CST) Temp. Windchill Dew Point Humidity Pressure Visibility Wind Dir Wind Speed Gust Speed Precip Events Conditions
12:42 AM 33.1 °F 23.0 °F 30.9 °F 92% 30.02 in 2.5 mi North 15.0 mph - 0.02 in Rain Light Rain
12:53 AM 33.1 °F 23.9 °F 30.9 °F 92% 30.03 in 2.5 mi North 12.7 mph - 0.03 in Rain Light Rain
1:27 AM 33.1 °F 23.4 °F 32.0 °F 96% 30.06 in 3.0 mi NNW 13.8 mph - 0.02 in Rain Light Rain
1:41 AM 33.1 °F 23.0 °F 32.0 °F 96% 30.03 in 2.5 mi North 15.0 mph - 0.04 in Rain Rain
1:53 AM 33.1 °F 22.6 °F 30.9 °F 92% 30.05 in 3.0 mi North 16.1 mph - 0.05 in Rain Light Rain
2:05 AM 33.1 °F 23.4 °F 30.9 °F 92% 30.04 in 3.0 mi North 13.8 mph - 0.01 in Rain Light Rain
2:32 AM 33.1 °F 23.0 °F 30.9 °F 92% 30.06 in 4.0 mi North 15.0 mph - 0.02 in Rain Light Rain
2:51 AM 33.8 °F 25.3 °F 30.2 °F 87% 30.07 in 3.0 mi NNW 11.5 mph - 0.03 in Rain Light Freezing Rain
2:52 AM 33.1 °F 23.4 °F 30.0 °F 89% 30.08 in 3.0 mi NNW 13.8 mph - 0.04 in Rain Light Freezing Rain
3:01 AM 33.1 °F 22.2 °F 30.0 °F 89% 30.07 in 3.0 mi North 17.3 mph - 0.00 in Rain Light Freezing Rain
3:30 AM 33.1 °F 21.9 °F 28.9 °F 85% 30.07 in 4.0 mi North 18.4 mph - 0.01 in Rain Light Freezing Rain
3:53 AM 33.1 °F 23.0 °F 30.0 °F 89% 30.11 in 4.0 mi NNW 15.0 mph - 0.01 in Rain Light Freezing Rain
4:12 AM 32.0 °F 21.6 °F 30.0 °F 92% 30.09 in 2.5 mi NNW 15.0 mph - 0.00 in Snow Light Snow
4:22 AM 32.0 °F 20.5 °F 28.9 °F 88% 30.09 in 4.0 mi North 18.4 mph - 0.00 in   Overcast
4:37 AM 32.0 °F 21.2 °F 28.0 °F 85% 30.07 in 4.0 mi North 16.1 mph - 0.00 in   Overcast
4:45 AM 32.0 °F 22.1 °F 28.0 °F 85% 30.08 in 5.0 mi North 13.8 mph - 0.00 in Rain Light Freezing Rain
4:53 AM 32.0 °F 21.6 °F 28.0 °F 85% 30.09 in 5.0 mi North 15.0 mph - 0.00 in   Overcast
5:32 AM 32.0 °F 21.6 °F 28.0 °F 85% 30.10 in 5.0 mi North 15.0 mph - 0.00 in   Overcast
5:53 AM 30.9 °F 21.2 °F 28.0 °F 89% 30.14 in 5.0 mi NNW 12.7 mph - 0.00 in   Overcast
6:53 AM 30.9 °F 21.2 °F 27.0 °F 85% 30.16 in 5.0 mi North 12.7 mph - N/A   Overcast
7:53 AM 30.0 °F 19.5 °F 26.1 °F 85% 30.20 in 3.0 mi North 13.8 mph - N/A   Overcast
8:30 AM 30.0 °F 20.5 °F 26.1 °F 85% 30.20 in 2.5 mi North 11.5 mph - N/A   Overcast
8:53 AM 30.0 °F 18.7 °F 25.0 °F 82% 30.22 in 2.5 mi North 16.1 mph - N/A   Haze
9:12 AM 30.0 °F 19.1 °F 26.1 °F 85% 30.23 in 3.0 mi NNW 15.0 mph - N/A   Overcast
9:53 AM 28.9 °F 17.7 °F 25.0 °F 85% 30.27 in 3.0 mi NNW 15.0 mph - N/A   Mostly Cloudy
10:26 AM 28.9 °F 19.2 °F 23.0 °F 78% 30.24 in 5.0 mi North 11.5 mph - N/A   Haze
10:53 AM 28.0 °F 15.7 °F 21.9 °F 78% 30.25 in 5.0 mi North 17.3 mph - N/A   Haze
11:40 AM 28.0 °F 17.5 °F 23.0 °F 81% 30.23 in 4.0 mi NNW 12.7 mph - N/A   Haze
11:53 AM 28.0 °F 18.6 °F 23.0 °F 81% 30.25 in 4.0 mi NNW 10.4 mph - N/A   Haze
12:50 PM 28.4 °F 18.0 °F 21.2 °F 74% 30.21 in 4.0 mi North 12.7 mph - N/A   Haze
12:53 PM 28.0 °F 17.5 °F 21.9 °F 78% 30.22 in 4.0 mi North 12.7 mph - N/A   Haze
1:53 PM 28.9 °F 18.6 °F 21.9 °F 75% 30.27 in 5.0 mi NNW 12.7 mph - N/A   Haze
2:53 PM 28.0 °F 18.1 °F 21.9 °F 78% 30.25 in 5.0 mi North 11.5 mph - N/A   Haze
3:53 PM 27.0 °F 15.2 °F 21.0 °F 78% 30.25 in 5.0 mi North 15.0 mph - N/A   Haze
4:53 PM 27.0 °F 15.6 °F 19.9 °F 75% 30.27 in 5.0 mi North 13.8 mph - N/A   Haze
5:53 PM 26.1 °F 15.0 °F 19.0 °F 75% 30.27 in 6.0 mi North 12.7 mph - N/A   Haze
6:53 PM 26.1 °F 15.0 °F 18.0 °F 71% 30.27 in 7.0 mi North 12.7 mph - N/A   Scattered Clouds
7:53 PM 26.1 °F 14.5 °F 18.0 °F 71% 30.25 in 7.0 mi North 13.8 mph - N/A   Overcast
8:53 PM 26.1 °F 15.0 °F 17.1 °F 69% 30.25 in 7.0 mi NNE 12.7 mph - N/A   Overcast
9:53 PM 25.0 °F 12.6 °F 18.0 °F 75% 30.27 in 6.0 mi North 15.0 mph - N/A   Haze
10:53 PM 24.1 °F 13.1 °F 17.1 °F 75% 30.24 in 6.0 mi North 11.5 mph - N/A   Haze
11:53 PM 24.1 °F 13.7 °F 17.1 °F 75% 30.27 in 6.0 mi North 10.4 mph - N/A   Haze